Year,Month,Day,Hour,Minute,Value (Times are PST for temperature in C)
2008,07,24,00,00,11.80
2008,07,24,00,01,11.80
2008,07,24,00,02,11.80
2008,07,24,00,03,11.70
2008,07,24,00,04,11.70
2008,07,24,00,05,11.70
2008,07,24,00,06,11.70
2008,07,24,00,07,11.70
2008,07,24,00,08,11.70
2008,07,24,00,09,11.60
2008,07,24,00,10,11.60
2008,07,24,00,11,11.60
2008,07,24,00,12,11.60
2008,07,24,00,13,11.60
2008,07,24,00,14,11.60
2008,07,24,00,15,11.60
2008,07,24,00,16,11.60
2008,07,24,00,17,11.50
2008,07,24,00,18,11.50
2008,07,24,00,19,11.50
2008,07,24,00,20,11.50
2008,07,24,00,21,11.40
2008,07,24,00,22,11.40
2008,07,24,00,23,11.40
2008,07,24,00,24,11.40
2008,07,24,00,25,11.40
2008,07,24,00,26,11.40
2008,07,24,00,27,11.40
2008,07,24,00,28,11.40
2008,07,24,00,29,11.40
2008,07,24,00,30,11.30
2008,07,24,00,31,11.30
2008,07,24,00,32,11.30
2008,07,24,00,33,11.30
2008,07,24,00,34,11.30
2008,07,24,00,35,11.20
2008,07,24,00,36,11.20
2008,07,24,00,37,11.20
2008,07,24,00,38,11.20
2008,07,24,00,39,11.20
2008,07,24,00,40,11.20
2008,07,24,00,41,11.20
2008,07,24,00,42,11.20
2008,07,24,00,43,11.20
2008,07,24,00,44,11.20
2008,07,24,00,45,11.20
2008,07,24,00,46,11.20
2008,07,24,00,47,11.20
2008,07,24,00,48,11.20
2008,07,24,00,49,11.20
2008,07,24,00,50,11.20
2008,07,24,00,51,11.20
2008,07,24,00,52,11.20
2008,07,24,00,53,11.20
2008,07,24,00,54,11.20
2008,07,24,00,55,11.20
2008,07,24,00,56,11.20
2008,07,24,00,57,11.20
2008,07,24,00,58,11.20
2008,07,24,00,59,11.10
2008,07,24,01,00,11.10
2008,07,24,01,01,11.10
2008,07,24,01,02,11.10
2008,07,24,01,03,11.10
2008,07,24,01,04,11.10
2008,07,24,01,05,11.10
2008,07,24,01,06,11.10
2008,07,24,01,07,11.10
2008,07,24,01,08,11.10
2008,07,24,01,09,11.10
2008,07,24,01,10,11.00
2008,07,24,01,11,11.00
2008,07,24,01,12,11.00
2008,07,24,01,13,11.00
2008,07,24,01,14,11.00
2008,07,24,01,15,10.90
2008,07,24,01,16,10.90
2008,07,24,01,17,10.90
2008,07,24,01,18,10.90
2008,07,24,01,19,10.90
2008,07,24,01,20,10.90
2008,07,24,01,21,10.90
2008,07,24,01,22,10.90
2008,07,24,01,23,10.90
2008,07,24,01,24,10.80
2008,07,24,01,25,10.80
2008,07,24,01,26,10.80
2008,07,24,01,27,10.80
2008,07,24,01,28,10.80
2008,07,24,01,29,10.80
2008,07,24,01,30,10.80
2008,07,24,01,31,10.80
2008,07,24,01,32,10.80
2008,07,24,01,33,10.80
2008,07,24,01,34,10.80
2008,07,24,01,35,10.80
2008,07,24,01,36,10.80
2008,07,24,01,37,10.70
2008,07,24,01,38,10.70
2008,07,24,01,39,10.70
2008,07,24,01,40,10.70
2008,07,24,01,41,10.70
2008,07,24,01,42,10.70
2008,07,24,01,43,10.70
2008,07,24,01,44,10.70
2008,07,24,01,45,10.70
2008,07,24,01,46,10.70
2008,07,24,01,47,10.70
2008,07,24,01,48,10.70
2008,07,24,01,49,10.70
2008,07,24,01,50,10.70
2008,07,24,01,51,10.70
2008,07,24,01,52,10.70
2008,07,24,01,53,10.70
2008,07,24,01,54,10.70
2008,07,24,01,55,10.70
2008,07,24,01,56,10.70
2008,07,24,01,57,10.70
2008,07,24,01,58,10.70
2008,07,24,01,59,10.70
2008,07,24,02,00,10.70
2008,07,24,02,01,10.70
2008,07,24,02,02,10.70
2008,07,24,02,03,10.70
2008,07,24,02,04,10.70
2008,07,24,02,05,10.70
2008,07,24,02,06,10.70
2008,07,24,02,07,10.70
2008,07,24,02,08,10.70
2008,07,24,02,09,10.70
2008,07,24,02,10,10.70
2008,07,24,02,11,10.70
2008,07,24,02,12,10.70
2008,07,24,02,13,10.70
2008,07,24,02,14,10.70
2008,07,24,02,15,10.70
2008,07,24,02,16,10.70
2008,07,24,02,17,10.70
2008,07,24,02,18,10.70
2008,07,24,02,19,10.70
2008,07,24,02,20,10.70
2008,07,24,02,21,10.70
2008,07,24,02,22,10.70
2008,07,24,02,23,10.70
2008,07,24,02,24,10.70
2008,07,24,02,25,10.70
2008,07,24,02,26,10.70
2008,07,24,02,27,10.70
2008,07,24,02,28,10.70
2008,07,24,02,29,10.70
2008,07,24,02,30,10.70
2008,07,24,02,31,10.70
2008,07,24,02,32,10.70
2008,07,24,02,33,10.70
2008,07,24,02,34,10.70
2008,07,24,02,35,10.70
2008,07,24,02,36,10.70
2008,07,24,02,37,10.70
2008,07,24,02,38,10.70
2008,07,24,02,39,10.70
2008,07,24,02,40,10.70
2008,07,24,02,41,10.70
2008,07,24,02,42,10.70
2008,07,24,02,43,10.70
2008,07,24,02,44,10.70
2008,07,24,02,45,10.70
2008,07,24,02,46,10.70
2008,07,24,02,47,10.70
2008,07,24,02,48,10.60
2008,07,24,02,49,10.60
2008,07,24,02,50,10.60
2008,07,24,02,51,10.60
2008,07,24,02,52,10.60
2008,07,24,02,53,10.50
2008,07,24,02,54,10.50
2008,07,24,02,55,10.40
2008,07,24,02,56,10.40
2008,07,24,02,57,10.40
2008,07,24,02,58,10.40
2008,07,24,02,59,10.40
2008,07,24,03,00,10.40
2008,07,24,03,01,10.40
2008,07,24,03,02,10.40
2008,07,24,03,03,10.40
2008,07,24,03,04,10.30
2008,07,24,03,05,10.30
2008,07,24,03,06,10.30
2008,07,24,03,07,10.30
2008,07,24,03,08,10.20
2008,07,24,03,09,10.20
2008,07,24,03,10,10.20
2008,07,24,03,11,10.20
2008,07,24,03,12,10.20
2008,07,24,03,13,10.20
2008,07,24,03,14,10.20
2008,07,24,03,15,10.10
2008,07,24,03,16,10.10
2008,07,24,03,17,10.10
2008,07,24,03,18,10.10
2008,07,24,03,19,10.10
2008,07,24,03,20,10.10
2008,07,24,03,21,10.10
2008,07,24,03,22,10.10
2008,07,24,03,23,10.10
2008,07,24,03,24,10.20
2008,07,24,03,25,10.20
2008,07,24,03,26,10.20
2008,07,24,03,27,10.20
2008,07,24,03,28,10.20
2008,07,24,03,29,10.20
2008,07,24,03,30,10.20
2008,07,24,03,31,10.20
2008,07,24,03,32,10.10
2008,07,24,03,33,10.10
2008,07,24,03,34,10.10
2008,07,24,03,35,10.00
2008,07,24,03,36,10.00
2008,07,24,03,37,10.00
2008,07,24,03,38,10.00
2008,07,24,03,39,10.00
2008,07,24,03,40,9.90
2008,07,24,03,41,9.80
2008,07,24,03,42,9.80
2008,07,24,03,43,9.80
2008,07,24,03,44,9.80
2008,07,24,03,45,9.70
2008,07,24,03,46,9.70
2008,07,24,03,47,9.70
2008,07,24,03,48,9.60
2008,07,24,03,49,9.60
2008,07,24,03,50,9.60
2008,07,24,03,51,9.60
2008,07,24,03,52,9.60
2008,07,24,03,53,9.60
2008,07,24,03,54,9.50
2008,07,24,03,55,9.50
2008,07,24,03,56,9.50
2008,07,24,03,57,9.40
2008,07,24,03,58,9.40
2008,07,24,03,59,9.40
2008,07,24,04,00,9.40
2008,07,24,04,01,9.30
2008,07,24,04,02,9.30
2008,07,24,04,03,9.30
2008,07,24,04,11,9.20
2008,07,24,04,12,9.20
2008,07,24,04,13,9.20
2008,07,24,04,14,9.10
2008,07,24,04,15,9.10
2008,07,24,04,16,9.10
2008,07,24,04,17,9.10
2008,07,24,04,18,9.10
2008,07,24,04,19,9.00
2008,07,24,04,20,9.00
2008,07,24,04,21,9.00
2008,07,24,04,22,8.90
2008,07,24,04,23,8.90
2008,07,24,04,24,8.90
2008,07,24,04,25,8.90
2008,07,24,04,26,8.90
2008,07,24,04,27,9.00
2008,07,24,04,28,9.00
2008,07,24,04,29,9.00
2008,07,24,04,30,9.00
2008,07,24,04,31,9.00
2008,07,24,04,32,9.00
2008,07,24,04,33,9.00
2008,07,24,04,34,9.00
2008,07,24,04,35,9.00
2008,07,24,04,36,9.00
2008,07,24,04,37,9.00
2008,07,24,04,38,9.00
2008,07,24,04,39,8.90
2008,07,24,04,40,8.90
2008,07,24,04,41,8.90
2008,07,24,04,42,8.90
2008,07,24,04,43,8.90
2008,07,24,04,44,8.90
2008,07,24,04,45,8.90
2008,07,24,04,46,8.90
2008,07,24,04,47,8.90
2008,07,24,04,48,8.90
2008,07,24,04,49,8.90
2008,07,24,04,50,8.90
2008,07,24,04,51,8.90
2008,07,24,04,52,8.90
2008,07,24,04,53,8.90
2008,07,24,04,54,8.90
2008,07,24,04,55,8.90
2008,07,24,04,56,8.90
2008,07,24,04,57,8.90
2008,07,24,04,58,9.00
2008,07,24,04,59,9.00
2008,07,24,05,00,9.00
2008,07,24,05,01,9.00
2008,07,24,05,02,9.00
2008,07,24,05,03,9.00
2008,07,24,05,04,8.90
2008,07,24,05,05,8.90
2008,07,24,05,06,8.90
2008,07,24,05,07,8.90
2008,07,24,05,08,8.90
2008,07,24,05,09,8.90
2008,07,24,05,10,8.90
2008,07,24,05,11,8.90
2008,07,24,05,12,8.90
2008,07,24,05,13,8.90
2008,07,24,05,14,8.90
2008,07,24,05,15,8.90
2008,07,24,05,16,8.90
2008,07,24,05,17,8.90
2008,07,24,05,18,8.90
2008,07,24,05,19,8.90
2008,07,24,05,20,8.90
2008,07,24,05,21,8.90
2008,07,24,05,22,8.90
2008,07,24,05,23,8.90
2008,07,24,05,24,8.80
2008,07,24,05,25,8.80
2008,07,24,05,26,8.80
2008,07,24,05,27,8.80
2008,07,24,05,28,8.80
2008,07,24,05,29,8.70
2008,07,24,05,30,8.70
2008,07,24,05,31,8.70
2008,07,24,05,32,8.70
2008,07,24,05,33,8.60
2008,07,24,05,34,8.60
2008,07,24,05,35,8.60
2008,07,24,05,36,8.60
2008,07,24,05,37,8.50
2008,07,24,05,38,8.50
2008,07,24,05,39,8.50
2008,07,24,05,40,8.40
2008,07,24,05,41,8.40
2008,07,24,05,42,8.40
2008,07,24,05,43,8.40
2008,07,24,05,44,8.40
2008,07,24,05,45,8.40
2008,07,24,05,46,8.30
2008,07,24,05,47,8.30
2008,07,24,05,48,8.30
2008,07,24,05,49,8.30
2008,07,24,05,50,8.30
2008,07,24,05,51,8.30
2008,07,24,05,52,8.20
2008,07,24,05,53,8.20
2008,07,24,05,54,8.20
2008,07,24,05,55,8.20
2008,07,24,05,56,8.30
2008,07,24,05,57,8.30
2008,07,24,05,58,8.30
2008,07,24,05,59,8.30
2008,07,24,06,00,8.30
2008,07,24,06,01,8.30
2008,07,24,06,02,8.30
2008,07,24,06,03,8.30
2008,07,24,06,04,8.30
2008,07,24,06,05,8.30
2008,07,24,06,06,8.30
2008,07,24,06,07,8.30
2008,07,24,06,08,8.40
2008,07,24,06,09,8.40
2008,07,24,06,10,8.40
2008,07,24,06,11,8.40
2008,07,24,06,12,8.50
2008,07,24,06,13,8.50
2008,07,24,06,14,8.50
2008,07,24,06,15,8.50
2008,07,24,06,16,8.60
2008,07,24,06,17,8.60
2008,07,24,06,18,8.60
2008,07,24,06,19,8.60
2008,07,24,06,20,8.70
2008,07,24,06,21,8.70
2008,07,24,06,22,8.70
2008,07,24,06,23,8.80
2008,07,24,06,24,8.80
2008,07,24,06,25,8.80
2008,07,24,06,26,8.80
2008,07,24,06,27,8.90
2008,07,24,06,28,8.90
2008,07,24,06,29,9.00
2008,07,24,06,30,9.10
2008,07,24,06,31,9.10
2008,07,24,06,32,9.20
2008,07,24,06,33,9.20
2008,07,24,06,34,9.30
2008,07,24,06,35,9.30
2008,07,24,06,36,9.40
2008,07,24,06,37,9.40
2008,07,24,06,38,9.50
2008,07,24,06,39,9.60
2008,07,24,06,40,9.60
2008,07,24,06,41,9.60
2008,07,24,06,42,9.70
2008,07,24,06,43,9.70
2008,07,24,06,44,9.80
2008,07,24,06,45,9.80
2008,07,24,06,46,9.90
2008,07,24,06,47,9.90
2008,07,24,06,48,10.00
2008,07,24,06,49,10.00
2008,07,24,06,50,10.10
2008,07,24,06,51,10.10
2008,07,24,06,52,10.20
2008,07,24,06,53,10.20
2008,07,24,06,54,10.20
2008,07,24,06,55,10.30
2008,07,24,06,56,10.30
2008,07,24,06,57,10.30
2008,07,24,06,58,10.40
2008,07,24,06,59,10.50
2008,07,24,07,00,10.50
2008,07,24,07,01,10.60
2008,07,24,07,02,10.70
2008,07,24,07,03,10.70
2008,07,24,07,04,10.80
2008,07,24,07,05,10.80
2008,07,24,07,06,10.80
2008,07,24,07,07,10.90
2008,07,24,07,08,10.90
2008,07,24,07,09,11.00
2008,07,24,07,10,11.10
2008,07,24,07,11,11.10
2008,07,24,07,12,11.20
2008,07,24,07,13,11.20
2008,07,24,07,14,11.20
2008,07,24,07,15,11.30
2008,07,24,07,16,11.30
2008,07,24,07,17,11.40
2008,07,24,07,18,11.40
2008,07,24,07,19,11.50
2008,07,24,07,20,11.60
2008,07,24,07,21,11.60
2008,07,24,07,22,11.60
2008,07,24,07,23,11.70
2008,07,24,07,24,11.70
2008,07,24,07,25,11.70
2008,07,24,07,26,11.70
2008,07,24,07,27,11.80
2008,07,24,07,28,11.80
2008,07,24,07,29,11.80
2008,07,24,07,30,11.90
2008,07,24,07,31,12.00
2008,07,24,07,32,12.00
2008,07,24,07,33,12.10
2008,07,24,07,34,12.20
2008,07,24,07,35,12.20
2008,07,24,07,36,12.30
2008,07,24,07,37,12.30
2008,07,24,07,38,12.40
2008,07,24,07,39,12.40
2008,07,24,07,40,12.50
2008,07,24,07,41,12.60
2008,07,24,07,42,12.60
2008,07,24,07,43,12.70
2008,07,24,07,44,12.80
2008,07,24,07,45,12.80
2008,07,24,07,46,12.80
2008,07,24,07,47,12.80
2008,07,24,07,48,12.80
2008,07,24,07,49,12.90
2008,07,24,07,50,12.90
2008,07,24,07,51,12.90
2008,07,24,07,52,12.90
2008,07,24,07,53,12.90
2008,07,24,07,54,12.90
2008,07,24,07,55,13.00
2008,07,24,07,56,13.00
2008,07,24,07,57,13.10
2008,07,24,07,58,13.10
2008,07,24,07,59,13.10
2008,07,24,08,00,13.10
2008,07,24,08,01,13.20
2008,07,24,08,02,13.20
2008,07,24,08,03,13.30
2008,07,24,08,04,13.30
2008,07,24,08,05,13.30
2008,07,24,08,06,13.30
2008,07,24,08,07,13.40
2008,07,24,08,08,13.40
2008,07,24,08,09,13.40
2008,07,24,08,10,13.50
2008,07,24,08,11,13.50
2008,07,24,08,12,13.60
2008,07,24,08,13,13.70
2008,07,24,08,14,13.70
2008,07,24,08,15,13.80
2008,07,24,08,16,14.00
2008,07,24,08,17,14.10
2008,07,24,08,18,14.10
2008,07,24,08,19,14.20
2008,07,24,08,20,14.30
2008,07,24,08,21,14.30
2008,07,24,08,22,14.40
2008,07,24,08,23,14.50
2008,07,24,08,24,14.50
2008,07,24,08,25,14.60
2008,07,24,08,26,14.70
2008,07,24,08,27,14.70
2008,07,24,08,28,14.80
2008,07,24,08,29,14.80
2008,07,24,08,30,14.80
2008,07,24,08,31,14.90
2008,07,24,08,32,14.90
2008,07,24,08,33,14.90
2008,07,24,08,34,14.90
2008,07,24,08,35,14.90
2008,07,24,08,36,14.90
2008,07,24,08,37,14.80
2008,07,24,08,38,14.70
2008,07,24,08,39,14.70
2008,07,24,08,40,14.70
2008,07,24,08,41,14.70
2008,07,24,08,42,14.70
2008,07,24,08,43,14.80
2008,07,24,08,44,15.00
2008,07,24,08,45,15.00
2008,07,24,08,46,15.00
2008,07,24,08,47,15.10
2008,07,24,08,48,15.20
2008,07,24,08,49,15.30
2008,07,24,08,50,15.30
2008,07,24,08,51,15.30
2008,07,24,08,52,15.30
2008,07,24,08,53,15.20
2008,07,24,08,54,15.20
2008,07,24,08,55,15.10
2008,07,24,08,56,15.10
2008,07,24,08,57,15.10
2008,07,24,08,58,15.00
2008,07,24,08,59,15.00
2008,07,24,09,00,14.90
2008,07,24,09,01,14.70
2008,07,24,09,02,14.60
2008,07,24,09,03,14.60
2008,07,24,09,04,14.50
2008,07,24,09,05,14.50
2008,07,24,09,06,14.40
2008,07,24,09,07,14.50
2008,07,24,09,08,14.60
2008,07,24,09,09,14.70
2008,07,24,09,10,14.80
2008,07,24,09,11,14.80
2008,07,24,09,12,14.90
2008,07,24,09,13,15.00
2008,07,24,09,14,15.00
2008,07,24,09,15,15.00
2008,07,24,09,16,15.10
2008,07,24,09,17,15.30
2008,07,24,09,18,15.30
2008,07,24,09,19,15.40
2008,07,24,09,20,15.50
2008,07,24,09,21,15.50
2008,07,24,09,22,15.60
2008,07,24,09,23,15.50
2008,07,24,09,24,15.40
2008,07,24,09,25,15.40
2008,07,24,09,26,15.30
2008,07,24,09,27,15.30
2008,07,24,09,28,15.20
2008,07,24,09,29,15.20
2008,07,24,09,30,15.10
2008,07,24,09,31,15.10
2008,07,24,09,32,15.20
2008,07,24,09,33,15.20
2008,07,24,09,34,15.20
2008,07,24,09,35,15.30
2008,07,24,09,36,15.30
2008,07,24,09,37,15.30
2008,07,24,09,38,15.30
2008,07,24,09,39,15.30
2008,07,24,09,40,15.20
2008,07,24,09,41,15.20
2008,07,24,09,42,15.10
2008,07,24,09,43,15.10
2008,07,24,09,44,15.10
2008,07,24,09,45,15.20
2008,07,24,09,46,15.30
2008,07,24,09,47,15.40
2008,07,24,09,48,15.60
2008,07,24,09,49,15.70
2008,07,24,09,50,15.70
2008,07,24,09,51,15.60
2008,07,24,09,52,15.60
2008,07,24,09,53,15.50
2008,07,24,09,54,15.40
2008,07,24,09,55,15.40
2008,07,24,09,56,15.40
2008,07,24,09,57,15.50
2008,07,24,09,58,15.60
2008,07,24,09,59,15.70
2008,07,24,10,00,15.90
2008,07,24,10,01,16.00
2008,07,24,10,02,16.00
2008,07,24,10,03,15.90
2008,07,24,10,04,15.90
2008,07,24,10,05,15.90
2008,07,24,10,06,15.80
2008,07,24,10,07,15.80
2008,07,24,10,08,15.70
2008,07,24,10,09,15.70
2008,07,24,10,10,15.70
2008,07,24,10,11,15.60
2008,07,24,10,12,15.60
2008,07,24,10,13,15.60
2008,07,24,10,14,15.60
2008,07,24,10,15,15.70
2008,07,24,10,16,15.80
2008,07,24,10,17,15.80
2008,07,24,10,18,15.80
2008,07,24,10,19,15.80
2008,07,24,10,20,15.80
2008,07,24,10,21,15.80
2008,07,24,10,22,16.00
2008,07,24,10,23,16.10
2008,07,24,10,24,16.20
2008,07,24,10,25,16.30
2008,07,24,10,26,16.40
2008,07,24,10,27,16.50
2008,07,24,10,28,16.60
2008,07,24,10,29,16.60
2008,07,24,10,30,16.60
2008,07,24,10,31,16.50
2008,07,24,10,32,16.50
2008,07,24,10,33,16.50
2008,07,24,10,34,16.50
2008,07,24,10,35,16.60
2008,07,24,10,36,16.60
2008,07,24,10,37,16.50
2008,07,24,10,38,16.30
2008,07,24,10,39,16.20
2008,07,24,10,40,16.10
2008,07,24,10,41,16.10
2008,07,24,10,42,16.10
2008,07,24,10,43,16.20
2008,07,24,10,44,16.40
2008,07,24,10,45,16.40
2008,07,24,10,46,16.40
2008,07,24,10,47,16.30
2008,07,24,10,48,16.30
2008,07,24,10,49,16.30
2008,07,24,10,50,16.30
2008,07,24,10,51,16.30
2008,07,24,10,52,16.40
2008,07,24,10,53,16.40
2008,07,24,10,54,16.40
2008,07,24,10,55,16.60
2008,07,24,10,56,16.70
2008,07,24,10,57,16.70
2008,07,24,10,58,16.80
2008,07,24,10,59,16.90
2008,07,24,11,00,17.00
2008,07,24,11,01,17.00
2008,07,24,11,02,17.00
2008,07,24,11,03,17.00
2008,07,24,11,04,17.00
2008,07,24,11,05,17.10
2008,07,24,11,06,17.20
2008,07,24,11,07,17.30
2008,07,24,11,08,17.40
2008,07,24,11,09,17.50
2008,07,24,11,10,17.60
2008,07,24,11,11,17.60
2008,07,24,11,12,17.60
2008,07,24,11,13,17.60
2008,07,24,11,14,17.50
2008,07,24,11,15,17.50
2008,07,24,11,16,17.50
2008,07,24,11,17,17.40
2008,07,24,11,18,17.40
2008,07,24,11,19,17.30
2008,07,24,11,20,17.20
2008,07,24,11,21,17.20
2008,07,24,11,22,17.20
2008,07,24,11,23,17.30
2008,07,24,11,24,17.50
2008,07,24,11,25,17.60
2008,07,24,11,26,17.70
2008,07,24,11,27,17.80
2008,07,24,11,28,17.80
2008,07,24,11,29,17.90
2008,07,24,11,30,17.90
2008,07,24,11,31,18.00
2008,07,24,11,32,18.10
2008,07,24,11,33,18.00
2008,07,24,11,34,18.00
2008,07,24,11,35,17.90
2008,07,24,11,36,17.90
2008,07,24,11,37,17.90
2008,07,24,11,38,17.90
2008,07,24,11,39,17.90
2008,07,24,11,40,17.90
2008,07,24,11,41,18.00
2008,07,24,11,42,18.10
2008,07,24,11,43,18.10
2008,07,24,11,44,18.20
2008,07,24,11,45,18.20
2008,07,24,11,46,18.30
2008,07,24,11,47,18.40
2008,07,24,11,48,18.40
2008,07,24,11,49,18.30
2008,07,24,11,50,18.40
2008,07,24,11,51,18.40
2008,07,24,11,52,18.50
2008,07,24,11,53,18.50
2008,07,24,11,54,18.50
2008,07,24,11,55,18.60
2008,07,24,11,56,18.70
2008,07,24,11,57,18.70
2008,07,24,11,58,18.80
2008,07,24,11,59,18.90
2008,07,24,12,00,18.90
2008,07,24,12,01,18.90
2008,07,24,12,02,18.90
2008,07,24,12,03,18.90
2008,07,24,12,04,18.80
2008,07,24,12,05,18.80
2008,07,24,12,06,18.80
2008,07,24,12,07,18.80
2008,07,24,12,08,18.70
2008,07,24,12,09,18.70
2008,07,24,12,10,18.70
2008,07,24,12,11,18.80
2008,07,24,12,12,18.90
2008,07,24,12,13,19.00
2008,07,24,12,14,19.10
2008,07,24,12,15,19.00
2008,07,24,12,16,19.00
2008,07,24,12,17,19.10
2008,07,24,12,18,19.20
2008,07,24,12,19,19.20
2008,07,24,12,20,19.20
2008,07,24,12,21,19.30
2008,07,24,12,22,19.50
2008,07,24,12,23,19.50
2008,07,24,12,24,19.60
2008,07,24,12,25,19.60
2008,07,24,12,26,19.50
2008,07,24,12,27,19.50
2008,07,24,12,28,19.40
2008,07,24,12,29,19.40
2008,07,24,12,30,19.40
2008,07,24,12,31,19.40
2008,07,24,12,32,19.40
2008,07,24,12,33,19.40
2008,07,24,12,34,19.40
2008,07,24,12,35,19.40
2008,07,24,12,36,19.40
2008,07,24,12,37,19.40
2008,07,24,12,38,19.50
2008,07,24,12,39,19.50
2008,07,24,12,40,19.60
2008,07,24,12,41,19.50
2008,07,24,12,42,19.50
2008,07,24,12,43,19.50
2008,07,24,12,44,19.60
2008,07,24,12,45,19.60
2008,07,24,12,46,19.50
2008,07,24,12,47,19.40
2008,07,24,12,48,19.30
2008,07,24,12,49,19.10
2008,07,24,12,50,19.10
2008,07,24,12,51,19.00
2008,07,24,12,52,19.00
2008,07,24,12,53,18.90
2008,07,24,12,54,18.90
2008,07,24,12,55,18.90
2008,07,24,12,56,19.00
2008,07,24,12,57,19.00
2008,07,24,12,58,18.90
2008,07,24,12,59,19.00
2008,07,24,13,00,19.00
2008,07,24,13,01,19.10
2008,07,24,13,02,19.20
2008,07,24,13,03,19.30
2008,07,24,13,04,19.50
2008,07,24,13,05,19.60
2008,07,24,13,06,19.70
2008,07,24,13,07,19.80
2008,07,24,13,08,19.90
2008,07,24,13,09,19.80
2008,07,24,13,10,19.80
2008,07,24,13,11,19.80
2008,07,24,13,12,19.90
2008,07,24,13,13,20.00
2008,07,24,13,14,20.20
2008,07,24,13,15,20.20
2008,07,24,13,16,20.30
2008,07,24,13,17,20.30
2008,07,24,13,18,20.30
2008,07,24,13,19,20.30
2008,07,24,13,20,20.30
2008,07,24,13,21,20.30
2008,07,24,13,22,20.30
2008,07,24,13,23,20.30
2008,07,24,13,24,20.40
2008,07,24,13,25,20.50
2008,07,24,13,26,20.60
2008,07,24,13,27,20.60
2008,07,24,13,28,20.60
2008,07,24,13,29,20.60
2008,07,24,13,30,20.60
2008,07,24,13,31,20.70
2008,07,24,13,32,20.70
2008,07,24,13,33,20.60
2008,07,24,13,34,20.50
2008,07,24,13,35,20.40
2008,07,24,13,36,20.30
2008,07,24,13,37,20.10
2008,07,24,13,38,19.90
2008,07,24,13,39,19.80
2008,07,24,13,40,19.90
2008,07,24,13,41,19.90
2008,07,24,13,42,19.90
2008,07,24,13,43,19.90
2008,07,24,13,44,19.80
2008,07,24,13,45,19.60
2008,07,24,13,46,19.40
2008,07,24,13,47,19.40
2008,07,24,13,48,19.40
2008,07,24,13,49,19.50
2008,07,24,13,50,19.40
2008,07,24,13,51,19.40
2008,07,24,13,52,19.30
2008,07,24,13,53,19.40
2008,07,24,13,54,19.40
2008,07,24,13,55,19.50
2008,07,24,13,56,19.60
2008,07,24,13,57,19.60
2008,07,24,13,58,19.60
2008,07,24,13,59,19.60
2008,07,24,14,00,19.60
2008,07,24,14,01,19.60
2008,07,24,14,02,19.60
2008,07,24,14,03,19.70
2008,07,24,14,04,19.90
2008,07,24,14,05,20.00
2008,07,24,14,06,20.20
2008,07,24,14,07,20.20
2008,07,24,14,08,20.40
2008,07,24,14,09,20.50
2008,07,24,14,10,20.40
2008,07,24,14,11,20.40
2008,07,24,14,12,20.40
2008,07,24,14,13,20.50
2008,07,24,14,14,20.60
2008,07,24,14,15,20.50
2008,07,24,14,16,20.40
2008,07,24,14,17,20.20
2008,07,24,14,18,20.00
2008,07,24,14,19,19.90
2008,07,24,14,20,19.90
2008,07,24,14,21,19.90
2008,07,24,14,22,19.90
2008,07,24,14,23,20.00
2008,07,24,14,24,20.00
2008,07,24,14,25,19.90
2008,07,24,14,26,20.00
2008,07,24,14,27,20.10
2008,07,24,14,28,20.10
2008,07,24,14,29,20.20
2008,07,24,14,30,20.20
2008,07,24,14,31,20.00
2008,07,24,14,32,19.80
2008,07,24,14,33,19.60
2008,07,24,14,34,19.50
2008,07,24,14,35,19.50
2008,07,24,14,36,19.40
2008,07,24,14,37,19.40
2008,07,24,14,38,19.40
2008,07,24,14,39,19.40
2008,07,24,14,40,19.40
2008,07,24,14,41,19.30
2008,07,24,14,42,19.20
2008,07,24,14,43,19.10
2008,07,24,14,44,18.90
2008,07,24,14,45,18.80
2008,07,24,14,46,18.80
2008,07,24,14,47,18.90
2008,07,24,14,48,18.90
2008,07,24,14,49,19.00
2008,07,24,14,50,19.10
2008,07,24,14,51,19.20
2008,07,24,14,52,19.30
2008,07,24,14,53,19.30
2008,07,24,14,54,19.40
2008,07,24,14,55,19.40
2008,07,24,14,56,19.50
2008,07,24,14,57,19.50
2008,07,24,14,58,19.40
2008,07,24,14,59,19.40
2008,07,24,15,00,19.30
2008,07,24,15,01,19.20
2008,07,24,15,02,19.20
2008,07,24,15,03,19.10
2008,07,24,15,04,19.10
2008,07,24,15,05,19.10
2008,07,24,15,06,19.10
2008,07,24,15,07,19.10
2008,07,24,15,08,19.10
2008,07,24,15,09,19.20
2008,07,24,15,10,19.20
2008,07,24,15,11,19.20
2008,07,24,15,12,19.30
2008,07,24,15,13,19.30
2008,07,24,15,14,19.40
2008,07,24,15,15,19.40
2008,07,24,15,16,19.50
2008,07,24,15,17,19.50
2008,07,24,15,18,19.50
2008,07,24,15,19,19.50
2008,07,24,15,20,19.50
2008,07,24,15,21,19.50
2008,07,24,15,22,19.60
2008,07,24,15,23,19.70
2008,07,24,15,24,19.70
2008,07,24,15,25,19.70
2008,07,24,15,26,19.70
2008,07,24,15,27,19.80
2008,07,24,15,28,19.80
2008,07,24,15,29,19.80
2008,07,24,15,30,19.90
2008,07,24,15,31,20.00
2008,07,24,15,32,20.10
2008,07,24,15,33,20.20
2008,07,24,15,34,20.30
2008,07,24,15,35,20.30
2008,07,24,15,36,20.20
2008,07,24,15,37,20.10
2008,07,24,15,38,20.20
2008,07,24,15,39,20.10
2008,07,24,15,40,20.10
2008,07,24,15,41,20.20
2008,07,24,15,42,20.30
2008,07,24,15,43,20.30
2008,07,24,15,44,20.30
2008,07,24,15,45,20.30
2008,07,24,15,46,20.30
2008,07,24,15,47,20.30
2008,07,24,15,48,20.30
2008,07,24,15,49,20.20
2008,07,24,15,50,20.20
2008,07,24,15,51,20.20
2008,07,24,15,52,20.20
2008,07,24,15,53,20.10
2008,07,24,15,54,20.20
2008,07,24,15,55,20.10
2008,07,24,15,56,20.10
2008,07,24,15,57,20.10
2008,07,24,15,58,20.10
2008,07,24,15,59,20.10
2008,07,24,16,00,20.10
2008,07,24,16,01,20.10
2008,07,24,16,02,20.20
2008,07,24,16,03,20.10
2008,07,24,16,04,20.10
2008,07,24,16,05,20.00
2008,07,24,16,06,20.00
2008,07,24,16,07,20.00
2008,07,24,16,08,19.90
2008,07,24,16,09,19.90
2008,07,24,16,10,19.90
2008,07,24,16,11,19.90
2008,07,24,16,12,20.00
2008,07,24,16,13,20.10
2008,07,24,16,14,20.10
2008,07,24,16,15,20.10
2008,07,24,16,16,20.10
2008,07,24,16,17,20.10
2008,07,24,16,18,20.20
2008,07,24,16,19,20.20
2008,07,24,16,20,20.20
2008,07,24,16,21,20.30
2008,07,24,16,22,20.30
2008,07,24,16,23,20.30
2008,07,24,16,24,20.30
2008,07,24,16,25,20.30
2008,07,24,16,26,20.40
2008,07,24,16,27,20.40
2008,07,24,16,28,20.50
2008,07,24,16,29,20.50
2008,07,24,16,30,20.40
2008,07,24,16,31,20.40
2008,07,24,16,32,20.30
2008,07,24,16,33,20.30
2008,07,24,16,34,20.30
2008,07,24,16,35,20.30
2008,07,24,16,36,20.30
2008,07,24,16,37,20.30
2008,07,24,16,38,20.30
2008,07,24,16,39,20.40
2008,07,24,16,40,20.40
2008,07,24,16,41,20.50
2008,07,24,16,42,20.50
2008,07,24,16,43,20.60
2008,07,24,16,44,20.60
2008,07,24,16,45,20.50
2008,07,24,16,46,20.50
2008,07,24,16,47,20.50
2008,07,24,16,48,20.50
2008,07,24,16,49,20.40
2008,07,24,16,50,20.40
2008,07,24,16,51,20.40
2008,07,24,16,52,20.40
2008,07,24,16,53,20.50
2008,07,24,16,54,20.50
2008,07,24,16,55,20.70
2008,07,24,16,56,20.80
2008,07,24,16,57,20.90
2008,07,24,16,58,21.00
2008,07,24,16,59,21.10
2008,07,24,17,00,21.20
2008,07,24,17,01,21.30
2008,07,24,17,02,21.30
2008,07,24,17,03,21.20
2008,07,24,17,04,21.20
2008,07,24,17,05,21.10
2008,07,24,17,06,21.00
2008,07,24,17,07,20.90
2008,07,24,17,08,20.90
2008,07,24,17,09,20.80
2008,07,24,17,10,20.80
2008,07,24,17,11,20.80
2008,07,24,17,12,20.80
2008,07,24,17,13,20.80
2008,07,24,17,14,20.80
2008,07,24,17,15,20.80
2008,07,24,17,16,20.80
2008,07,24,17,17,20.70
2008,07,24,17,18,20.70
2008,07,24,17,19,20.60
2008,07,24,17,20,20.60
2008,07,24,17,21,20.60
2008,07,24,17,22,20.60
2008,07,24,17,23,20.60
2008,07,24,17,24,20.70
2008,07,24,17,25,20.70
2008,07,24,17,26,20.70
2008,07,24,17,27,20.80
2008,07,24,17,28,20.80
2008,07,24,17,29,20.90
2008,07,24,17,30,21.00
2008,07,24,17,31,21.00
2008,07,24,17,32,21.00
2008,07,24,17,33,21.00
2008,07,24,17,34,20.90